Wind_Speed
35 35 35 35 35 36 36 36 36 36 36 35 35 35 35 35 35 35 35 35 35 36 36 36 37 37 38 39 39 40 40 41 41 41 42 43 43 44 44 44 44 44 44
38 37 37 37 36 37 37 37 37 37 37 36 36 36 36 36 36 36 36 36 36 36 36 37 37 38 39 40 40 41 41 42 42 43 43 43 43 44 44 45 45 45 45
38 38 37 37 37 37 37 38 37 37 37 37 37 37 37 37 37 36 36 36 36 36 37 37 38 39 40 40 41 41 42 43 44 45 45 44 44 44 44 45 45 45 46
37 38 38 37 38 38 38 38 37 37 37 38 38 38 38 37 37 37 37 37 36 37 37 38 39 40 40 41 41 43 43 44 45 46 46 46 46 45 44 44 45 45 45
38 39 39 38 37 37 37 38 38 37 38 38 38 38 37 37 37 36 36 36 37 37 38 39 39 40 40 41 42 43 44 45 46 47 47 47 47 47 46 44 44 45 46
38 38 38 37 37 37 37 37 38 38 38 38 38 37 37 37 36 36 36 37 37 37 39 39 39 40 41 42 43 45 46 47 48 48 48 48 47 47 47 46 45 45 45
37 37 37 37 37 37 37 37 38 37 37 37 37 37 37 37 36 36 37 36 37 38 39 39 40 41 42 44 45 46 47 48 48 48 48 48 48 48 48 47 47 46 46
35 35 35 36 36 36 36 37 36 36 36 36 36 36 36 36 36 36 36 36 37 38 39 40 41 42 43 44 46 47 48 48 48 48 48 48 48 48 49 49 49 48 47
34 34 34 35 35 35 35 35 35 34 35 35 35 35 35 35 35 35 36 37 37 38 40 41 42 43 44 45 47 48 48 48 48 48 48 49 49 49 50 50 50 50 50
33 33 33 34 34 34 33 34 33 33 34 34 34 34 34 34 35 36 36 37 37 39 40 41 43 44 45 47 48 48 48 49 49 49 49 49 50 50 50 51 52 54 55
31 31 31 31 31 31 31 32 32 32 32 32 33 33 33 34 35 36 36 37 38 40 40 42 44 45 46 47 48 48 49 49 49 49 50 50 51 51 52 54 55 57 59
29 29 29 29 29 29 30 30 31 31 31 32 32 33 33 34 35 36 37 38 39 40 41 43 45 46 47 48 48 49 49 49 50 50 51 51 52 53 55 57 59 61 63
27 27 28 28 28 29 29 30 30 31 31 32 33 33 34 35 36 36 37 39 40 41 43 45 46 47 48 48 49 49 49 50 51 51 52 53 55 56 58 60 63 65 67
26 27 27 27 28 29 29 29 30 31 31 32 32 33 34 35 36 37 38 40 41 42 44 45 47 47 48 48 49 50 51 51 52 53 54 56 58 59 62 64 66 69 70
26 27 27 28 28 28 29 29 30 30 31 32 32 33 34 35 36 37 39 41 42 43 44 46 46 47 48 49 50 51 52 52 54 55 57 59 61 63 65 68 69 71 73
27 27 28 28 28 28 29 29 30 30 31 32 33 34 34 35 37 38 40 41 42 44 45 45 46 47 49 50 51 52 53 55 56 58 60 62 64 66 68 69 71 74 76
27 27 27 27 28 28 29 29 30 30 31 32 32 33 34 36 37 38 40 41 43 43 44 45 47 48 50 52 53 54 56 57 59 61 63 65 67 68 70 71 73 75 77
27 27 26 27 27 28 28 29 30 30 31 32 33 34 35 37 38 39 41 42 42 43 45 46 48 49 51 53 54 56 58 60 62 64 66 67 69 70 72 73 74 75 75
26 26 26 27 27 28 28 29 30 31 32 33 34 35 36 37 38 40 41 42 43 44 46 48 49 51 53 55 57 59 61 63 65 67 68 69 71 72 74 75 75 74 73
26 26 26 27 27 27 28 29 30 31 33 33 34 35 36 38 39 40 41 42 44 45 47 49 51 52 55 57 59 62 64 66 67 68 69 71 73 73 74 75 75 74 72
26 26 27 27 27 28 29 30 31 31 33 34 35 36 37 39 40 40 42 43 45 46 48 50 52 54 57 59 62 64 67 68 68 69 70 71 73 73 74 74 74 72 70
27 27 27 27 28 29 29 30 31 32 33 34 35 37 38 39 40 41 43 44 46 48 49 51 54 56 59 61 64 66 67 68 69 70 70 71 72 72 73 72 71 69 66
27 27 28 28 29 29 30 30 31 33 34 35 36 37 38 39 41 42 44 45 47 49 51 54 56 58 60 63 66 67 68 69 70 70 70 71 71 71 70 68 67 65 62
27 28 29 29 29 29 30 31 32 34 34 35 36 37 39 40 42 43 45 46 49 52 54 56 58 60 63 65 67 68 69 70 70 71 71 72 71 70 68 65 63 60 57
28 28 28 29 29 30 31 32 33 34 35 36 37 38 40 41 43 44 46 49 51 54 56 59 61 63 65 67 69 70 70 71 71 72 72 71 69 67 65 62 58 54 50
29 29 29 30 31 31 32 33 34 35 36 37 38 40 41 43 44 46 49 51 54 57 59 61 63 65 68 69 70 71 71 71 72 72 70 68 66 64 61 57 52 48 44
Wind_Direction
269 271 273 275 276 278 280 282 283 284 286 287 286 286 286 287 287 287 288 288 289 289 290 291 292 293 294 294 294 295 295 296 296 297 297 298 298 297 296 296 295 294 293
270 272 272 274 275 277 279 281 283 284 285 285 285 285 286 286 286 286 287 287 288 289 290 291 291 293 294 294 294 295 295 296 297 298 298 298 298 298 298 297 296 295 295
271 272 272 274 276 277 279 280 281 282 283 284 284 284 285 285 285 285 285 286 288 289 290 291 291 293 294 294 294 295 296 297 299 299 299 299 298 298 298 297 296 296 296
271 272 273 275 276 277 278 279 280 281 282 283 283 284 284 284 284 284 285 286 287 288 289 290 291 293 294 294 295 297 298 299 300 300 300 300 300 299 298 297 297 296 296
271 273 274 275 276 276 277 278 279 280 281 282 282 282 282 283 283 283 284 286 287 288 290 291 292 293 294 295 297 298 299 300 301 301 301 301 301 300 299 298 297 297 297
272 273 275 275 276 276 277 278 279 280 281 281 281 281 281 282 283 283 284 286 287 289 290 291 292 293 295 296 298 299 300 301 302 302 302 302 301 301 300 299 298 298 297
272 273 274 275 276 276 277 278 279 280 280 280 280 280 281 282 283 283 284 285 287 289 290 291 292 294 296 297 298 299 301 302 302 302 302 302 302 301 301 300 300 299 299
273 274 275 275 276 276 277 278 278 278 279 279 280 280 281 282 282 283 284 285 287 289 290 291 293 295 296 297 299 300 302 303 303 303 303 303 303 302 302 301 301 300 299
273 274 275 276 276 276 277 277 278 278 278 278 279 280 281 282 282 283 284 286 287 288 290 292 294 296 297 298 299 301 303 303 303 303 303 303 303 303 303 302 302 301 300
273 274 275 275 276 276 277 277 277 278 278 278 279 280 281 281 282 284 285 287 288 289 291 293 295 296 297 299 300 302 302 303 303 303 304 304 303 303 303 303 302 302 302
273 274 275 276 276 277 277 278 278 278 279 279 280 280 281 282 283 285 286 287 289 290 292 293 295 296 298 299 301 302 302 303 303 304 304 304 303 303 303 303 303 303 303
275 276 275 276 277 277 278 278 279 279 279 279 280 281 282 283 284 286 288 289 290 291 292 293 295 296 298 299 300 301 302 303 303 304 303 303 304 304 304 304 305 305 304
275 275 274 275 276 277 278 279 280 280 280 281 281 282 283 284 285 287 289 290 291 292 293 294 295 297 298 299 301 302 303 303 304 304 304 304 304 304 305 305 306 306 306
273 273 274 276 277 278 279 279 280 280 281 282 283 284 284 285 286 288 290 291 292 293 294 295 296 298 299 300 301 302 303 303 304 304 304 304 304 305 305 306 306 306 306
274 274 276 277 278 279 279 280 281 282 282 283 284 285 285 286 288 289 290 292 293 294 295 296 297 298 299 300 301 302 303 303 304 304 304 304 305 305 306 307 307 307 308
275 276 277 278 278 279 281 282 283 283 284 285 286 287 287 288 290 291 292 293 294 295 296 297 298 299 300 301 301 302 303 303 304 304 304 305 305 306 307 307 308 308 309
275 276 278 279 279 280 282 283 284 285 286 286 287 288 289 290 291 293 294 295 295 296 297 298 299 300 301 301 302 302 303 304 304 304 305 305 306 306 307 308 308 309 309
275 276 278 279 280 280 282 283 285 286 287 287 288 290 291 292 293 294 295 296 297 297 298 299 300 301 301 302 302 303 304 304 305 305 306 306 307 307 307 308 309 309 309
274 275 276 279 280 282 283 284 286 287 288 289 290 291 292 293 294 296 297 297 298 299 299 300 301 301 302 303 303 304 305 305 306 306 306 307 307 308 308 308 309 310 309
273 275 277 279 282 284 285 286 287 289 290 291 292 292 293 294 296 297 298 298 299 300 300 301 302 302 303 304 304 305 305 306 306 307 307 308 308 308 309 309 310 309 309
272 275 277 280 282 284 286 288 289 290 291 292 293 294 295 296 297 298 299 299 300 301 302 302 303 304 305 305 306 306 307 307 307 308 308 308 308 309 309 309 310 309 309
272 274 277 280 283 285 287 289 290 291 292 293 294 295 296 297 298 299 300 301 302 302 303 304 305 305 306 306 307 307 308 308 309 309 309 309 309 309 310 310 310 310 309
272 274 277 281 284 286 288 290 291 293 294 295 296 297 298 299 300 301 302 302 303 304 304 305 306 306 307 307 308 308 309 309 309 310 310 310 310 310 310 310 310 310 309
273 276 279 282 284 287 289 291 292 294 295 296 297 298 299 301 302 303 304 304 305 305 306 306 307 308 308 309 309 309 309 309 309 310 310 311 310 310 310 310 310 309 309
274 277 279 282 285 287 289 291 293 294 296 297 298 299 301 302 303 304 305 306 307 307 308 308 309 309 310 310 310 310 310 310 310 310 311 311 311 310 310 310 310 309 308
275 277 279 282 285 287 289 291 293 295 297 297 299 300 301 303 304 305 306 308 308 309 309 310 310 311 311 311 311 311 311 311 311 311 312 311 311 311 311 310 310 309 308
Height
5814 5815 5815 5815 5815 5814 5813 5813 5812 5810 5809 5808 5807 5805 5803 5802 5800 5798 5796 5794 5792 5790 5788 5786 5783 5781 5779 5776 5774 5771 5769 5766 5763 5761 5757 5754 5751 5747 5743 5740 5737 5734 5731
5807 5807 5808 5808 5808 5807 5806 5805 5805 5803 5802 5801 5799 5798 5796 5794 5792 5790 5788 5786 5784 5782 5780 5778 5776 5773 5771 5768 5765 5763 5760 5757 5754 5751 5748 5745 5742 5738 5733 5729 5726 5722 5719
5799 5799 5800 5800 5800 5799 5799 5798 5797 5796 5794 5793 5791 5790 5788 5786 5785 5783 5781 5779 5777 5775 5772 5770 5768 5765 5763 5760 5757 5754 5751 5748 5745 5741 5738 5735 5732 5729 5725 5719 5715 5712 5708
5791 5791 5792 5792 5792 5792 5791 5790 5789 5788 5786 5785 5784 5782 5780 5779 5777 5775 5773 5771 5769 5767 5764 5762 5760 5757 5754 5751 5748 5745 5742 5739 5735 5731 5727 5724 5720 5717 5715 5710 5705 5701 5697
5783 5783 5783 5784 5784 5783 5782 5781 5781 5780 5778 5777 5775 5774 5772 5770 5769 5767 5765 5763 5761 5759 5756 5754 5751 5748 5745 5742 5739 5736 5732 5729 5725 5721 5717 5713 5709 5705 5702 5700 5696 5691 5686
5774 5774 5775 5775 5775 5775 5774 5773 5772 5771 5770 5768 5767 5765 5764 5762 5761 5759 5757 5755 5753 5751 5748 5745 5742 5740 5737 5734 5730 5726 5723 5719 5715 5710 5706 5702 5698 5694 5690 5687 5684 5680 5676
5766 5766 5766 5766 5766 5766 5765 5764 5764 5763 5761 5760 5758 5757 5756 5754 5752 5751 5749 5747 5745 5742 5739 5737 5734 5731 5728 5724 5721 5717 5713 5709 5704 5700 5695 5691 5686 5682 5678 5675 5671 5668 5665
5757 5758 5758 5758 5758 5757 5756 5756 5755 5754 5753 5751 5750 5749 5747 5746 5744 5742 5741 5739 5737 5734 5731 5728 5725 5722 5719 5715 5711 5707 5703 5698 5694 5689 5684 5680 5675 5670 5666 5662 5658 5655 5653
5749 5749 5749 5749 5749 5749 5748 5747 5746 5745 5744 5743 5742 5740 5739 5737 5736 5734 5732 5730 5728 5725 5722 5719 5716 5713 5709 5705 5701 5697 5693 5688 5683 5678 5673 5669 5664 5659 5654 5649 5645 5641 5638
5741 5741 5741 5741 5740 5740 5739 5739 5738 5737 5736 5735 5733 5732 5731 5729 5728 5726 5724 5722 5719 5716 5714 5710 5707 5703 5700 5695 5691 5687 5682 5677 5672 5667 5662 5657 5652 5647 5642 5637 5632 5627 5622
5733 5733 5733 5732 5732 5731 5731 5730 5730 5729 5728 5726 5725 5724 5723 5721 5719 5717 5715 5713 5710 5707 5704 5701 5698 5694 5690 5685 5681 5676 5671 5666 5661 5656 5651 5646 5640 5635 5629 5624 5618 5612 5606
5725 5725 5725 5724 5724 5724 5723 5722 5721 5720 5719 5718 5717 5716 5714 5712 5711 5709 5706 5704 5701 5698 5695 5691 5688 5684 5679 5675 5670 5665 5660 5655 5650 5645 5639 5633 5628 5622 5616 5610 5604 5597 5589
5717 5717 5717 5717 5716 5716 5715 5714 5713 5712 5711 5710 5709 5707 5706 5704 5702 5700 5697 5695 5692 5689 5685 5681 5677 5673 5669 5664 5659 5654 5649 5644 5638 5633 5627 5621 5615 5609 5602 5595 5588 5580 5573
5710 5709 5709 5709 5709 5708 5707 5706 5705 5704 5703 5702 5701 5699 5697 5695 5693 5691 5688 5686 5682 5679 5675 5671 5667 5663 5658 5653 5648 5643 5638 5632 5627 5620 5614 5608 5601 5594 5587 5580 5572 5563 5555
5702 5702 5701 5701 5701 5700 5699 5698 5697 5696 5695 5694 5692 5690 5689 5686 5684 5682 5679 5676 5672 5669 5665 5661 5656 5652 5647 5642 5636 5631 5626 5620 5614 5608 5601 5594 5587 5579 5571 5563 5554 5545 5536
5694 5694 5694 5693 5693 5692 5691 5690 5689 5688 5687 5685 5684 5682 5680 5677 5675 5672 5669 5666 5662 5658 5654 5650 5645 5641 5636 5630 5625 5619 5614 5608 5601 5595 5587 5580 5572 5563 5555 5546 5537 5527 5516
5686 5686 5686 5685 5685 5684 5683 5682 5681 5680 5678 5677 5675 5673 5671 5668 5666 5663 5659 5656 5652 5648 5644 5639 5634 5630 5624 5618 5612 5607 5601 5595 5588 5580 5573 5565 5556 5547 5538 5529 5520 5509 5497
5678 5678 5678 5678 5677 5676 5675 5674 5673 5672 5670 5668 5666 5664 5662 5659 5656 5653 5649 5646 5642 5638 5633 5628 5623 5618 5612 5606 5600 5594 5587 5581 5573 5565 5557 5548 5539 5529 5520 5511 5503 5492 5481
5671 5671 5670 5670 5669 5668 5667 5666 5665 5664 5662 5660 5658 5655 5652 5649 5646 5643 5639 5635 5631 5627 5622 5617 5612 5606 5600 5593 5586 5579 5573 5566 5558 5550 5540 5530 5522 5513 5502 5493 5484 5475 5464
5663 5663 5663 5662 5661 5661 5659 5658 5657 5655 5653 5651 5648 5646 5643 5640 5637 5633 5629 5625 5621 5616 5611 5606 5600 5594 5587 5580 5572 5565 5558 5551 5543 5534 5524 5513 5503 5494 5483 5473 5464 5455 5446
5655 5655 5655 5654 5654 5653 5651 5650 5649 5647 5644 5642 5639 5637 5634 5630 5627 5623 5619 5614 5610 5605 5600 5594 5588 5581 5574 5566 5558 5549 5541 5532 5525 5516 5507 5496 5485 5475 5465 5454 5444 5435 5426
5647 5647 5647 5646 5645 5644 5643 5642 5640 5638 5636 5633 5630 5627 5624 5620 5616 5613 5608 5603 5599 5593 5588 5582 5575 5567 5559 5551 5542 5533 5524 5514 5506 5498 5489 5479 5468 5457 5447 5436 5426 5417 5408
5639 5639 5639 5638 5637 5636 5635 5633 5631 5629 5627 5624 5621 5617 5614 5610 5606 5602 5597 5592 5587 5581 5575 5569 5562 5554 5546 5536 5527 5518 5508 5498 5488 5480 5470 5461 5450 5440 5430 5420 5410 5400 5392
5632 5632 5631 5630 5629 5628 5626 5625 5622 5620 5617 5615 5611 5608 5604 5600 5596 5591 5586 5581 5575 5569 5562 5555 5548 5540 5531 5521 5511 5502 5492 5482 5472 5462 5453 5443 5433 5423 5413 5404 5395 5386 5377
5624 5623 5623 5622 5621 5619 5618 5616 5613 5611 5608 5605 5602 5598 5594 5590 5585 5580 5575 5569 5563 5555 5548 5541 5533 5524 5516 5506 5495 5484 5474 5464 5454 5444 5436 5425 5415 5406 5397 5389 5380 5372 5365
5616 5615 5615 5614 5612 5611 5609 5606 5604 5602 5599 5595 5592 5588 5584 5579 5575 5569 5564 5556 5550 5542 5533 5525 5517 5508 5499 5488 5478 5467 5457 5446 5435 5425 5416 5407 5398 5389 5381 5373 5366 5359 5353